DW1653 Weather Reports


Display with metric or nautical units.
time (UTC)temp
F
wind
direction
speed
MPH
gust
MPH
rain 1hr
in
rain 24hr
in
rain mn
in
humidity
%
barometer
mb
20260905001827 82 317 1.0 3.0 0.00 0.01 0.01 68 1010.3
20260905001323 82 306 1.0 2.0 0.00 0.01 0.01 67 1010.4
20260905000814 82 317 1.0 2.0 0.00 0.01 0.01 67 1010.4
20260905000348 82 342 1.0 2.0 0.00 0.01 0.01 67 1010.5
20260904235822 83 268 0.0 1.0 0.00 0.01 0.01 67 1010.5
20260904235334 83 268 0.0 1.0 0.00 0.01 0.01 67 1010.5
20260904234846 83 268 0.0 2.0 0.00 0.01 0.01 67 1010.5
20260904234316 83 263 0.0 2.0 0.00 0.01 0.01 67 1010.4
20260904233827 83 5 1.0 2.0 0.00 0.01 0.01 66 1010.6
20260904233338 83 267 0.0 2.0 0.00 0.01 0.01 66 1010.6
20260904232830 83 273 0.0 2.0 0.00 0.01 0.01 66 1010.6
20260904232324 83 273 1.0 2.0 0.00 0.01 0.01 65 1010.6
20260904231816 84 294 1.0 2.0 0.00 0.01 0.01 65 1010.6
20260904231330 84 294 0.0 2.0 0.00 0.01 0.01 65 1010.7
20260904230821 84 294 1.0 3.0 0.00 0.01 0.01 64 1010.6
20260904230333 84 346 0.0 3.0 0.00 0.01 0.01 64 1010.5
20260904225823 85 286 1.0 3.0 0.00 0.01 0.01 63 1010.6
20260904225315 85 229 0.0 3.0 0.00 0.01 0.01 63 1010.6
20260904224827 85 346 0.0 2.0 0.00 0.01 0.01 62 1010.5
20260904224322 85 261 0.0 2.0 0.00 0.01 0.01 62 1010.7
20260904223834 85 150 0.0 5.0 0.00 0.01 0.01 62 1010.7
20260904223325 85 244 1.0 6.0 0.00 0.01 0.01 61 1010.6
20260904222819 85 292 4.0 6.0 0.00 0.01 0.01 60 1010.7
20260904222330 86 236 3.0 5.0 0.00 0.01 0.01 60 1010.7
20260904221821 86 290 2.0 6.0 0.00 0.01 0.01 60 1010.6
20260904221333 86 260 3.0 6.0 0.00 0.01 0.01 59 1010.5
20260904220824 87 278 3.0 6.0 0.00 0.01 0.01 58 1010.4
20260904220339 87 256 1.0 6.0 0.00 0.01 0.01 57 1010.4
20260904215849 87 270 4.0 6.0 0.00 0.01 0.01 57 1010.5
20260904215324 88 284 2.0 6.0 0.00 0.01 0.01 56 1010.5
20260904214855 88 226 2.0 7.0 0.00 0.01 0.01 56 1010.5
20260904214325 89 329 3.0 7.0 0.00 0.01 0.01 54 1010.4
20260904213817 90 273 3.0 7.0 0.00 0.01 0.01 53 1010.5
20260904213351 90 342 3.0 7.0 0.00 0.01 0.01 53 1010.4
20260904212825 90 348 3.0 7.0 0.00 0.01 0.01 52 1010.3
20260904212316 90 319 3.0 7.0 0.00 0.01 0.01 54 1010.2
20260904211848 90 41 1.0 8.0 0.00 0.01 0.01 54 1010.2
20260904211338 90 335 3.0 6.0 0.00 0.01 0.01 54 1010.3
20260904210319 90 360 4.0 9.0 0.00 0.01 0.01 52 1010.4
20260904205817 91 338 4.0 9.0 0.00 0.01 0.01 52 1010.4
20260904205329 91 327 1.0 7.0 0.00 0.01 0.01 53 1010.4
20260904204821 91 355 3.0 6.0 0.00 0.01 0.01 52 1010.4
20260904204312 91 316 2.0 6.0 0.00 0.01 0.01 53 1010.5
20260904203825 91 264 3.0 8.0 0.00 0.01 0.01 52 1010.5
20260904203316 91 295 3.0 7.0 0.00 0.01 0.01 52 1010.5
20260904202827 91 355 3.0 7.0 0.00 0.01 0.01 52 1010.5
20260904202319 91 282 2.0 8.0 0.00 0.01 0.01 53 1010.6
20260904201815 91 242 3.0 7.0 0.00 0.01 0.01 51 1010.7
20260904201327 92 252 2.0 7.0 0.00 0.01 0.01 52 1010.8
20260904200817 91 355 3.0 8.0 0.00 0.01 0.01 51 1010.7
20260904200328 91 213 2.0 8.0 0.00 0.01 0.01 51 1010.8
20260904195820 91 360 4.0 10.0 0.00 0.01 0.01 50 1010.8
20260904195351 92 11 5.0 10.0 0.00 0.01 0.01 50 1010.9
20260904194822 92 318 3.0 12.0 0.00 0.01 0.01 49 1010.9
20260904194316 92 9 2.0 12.0 0.00 0.01 0.01 52 1010.9
20260904193814 92 227 3.0 8.0 0.00 0.01 0.01 51 1011.0
20260904193349 92 74 3.0 9.0 0.00 0.01 0.01 53 1011.1
20260904192819 91 329 2.0 8.0 0.00 0.01 0.01 53 1011.2
20260904192331 91 327 2.0 8.0 0.00 0.01 0.01 53 1011.2
20260904191822 91 294 2.0 6.0 0.00 0.01 0.01 53 1011.2
20260904191334 91 351 2.0 8.0 0.00 0.01 0.01 52 1011.2
20260904190825 91 274 2.0 8.0 0.00 0.01 0.01 51 1011.3
20260904190317 92 284 3.0 8.0 0.00 0.01 0.01 50 1011.3
20260904185828 92 299 3.0 9.0 0.00 0.01 0.01 51 1011.2
20260904185324 92 13 3.0 9.0 0.00 0.01 0.01 51 1011.3
20260904184817 92 322 3.0 8.0 0.00 0.01 0.01 52 1011.3
20260904184329 91 311 3.0 9.0 0.00 0.01 0.01 51 1011.3
20260904183823 91 306 3.0 9.0 0.00 0.01 0.01 51 1011.4
20260904183355 91 259 3.0 7.0 0.00 0.01 0.01 51 1011.3
20260904182826 91 223 3.0 5.0 0.00 0.01 0.01 52 1011.3
20260904182317 90 341 2.0 5.0 0.00 0.01 0.01 54 1011.4
20260904181848 89 323 1.0 11.0 0.00 0.01 0.01 54 1011.4
20260904181318 89 303 5.0 11.0 0.00 0.01 0.01 53 1011.6
20260904180830 90 355 2.0 7.0 0.00 0.01 0.01 52 1011.5
20260904180340 90 238 3.0 8.0 0.00 0.01 0.01 52 1011.5
20260904175816 90 266 4.0 12.0 0.00 0.01 0.01 53 1011.6
20260904175333 89 318 5.0 12.0 0.00 0.01 0.01 53 1011.4
20260904174822 89 333 3.0 9.0 0.00 0.01 0.01 55 1011.5
20260904174334 89 315 3.0 12.0 0.00 0.01 0.01 52 1011.5
20260904173827 89 313 3.0 12.0 0.00 0.01 0.01 52 1011.6
20260904173319 90 346 4.0 8.0 0.00 0.01 0.01 51 1011.6
20260904172833 90 286 2.0 6.0 0.00 0.01 0.01 51 1011.5
20260904172326 90 355 1.0 8.0 0.00 0.01 0.01 52 1011.4
20260904171837 90 340 2.0 8.0 0.00 0.01 0.01 52 1011.4
20260904171312 89 15 3.0 8.0 0.00 0.01 0.01 54 1011.5
20260904170826 89 333 2.0 10.0 0.00 0.01 0.01 55 1011.6
20260904170317 89 269 2.0 10.0 0.00 0.01 0.01 53 1011.5
20260904165832 89 360 4.0 8.0 0.00 0.01 0.01 54 1011.5
20260904165323 89 17 1.0 8.0 0.00 0.01 0.01 54 1011.5
20260904164818 89 299 4.0 8.0 0.00 0.01 0.01 54 1011.5
20260904164332 89 334 2.0 7.0 0.00 0.01 0.01 56 1011.6
20260904163823 88 5 1.0 7.0 0.00 0.01 0.01 54 1011.5
20260904163318 88 360 3.0 9.0 0.00 0.01 0.01 54 1011.6
20260904162830 89 344 5.0 11.0 0.00 0.01 0.01 52 1011.6
20260904162321 89 19 7.0 11.0 0.00 0.01 0.01 51 1011.6
20260904161816 89 5 7.0 13.0 0.00 0.01 0.01 51 1011.6
20260904161330 89 336 6.0 13.0 0.00 0.01 0.01 51 1011.6
20260904160819 89 355 5.0 12.0 0.00 0.01 0.01 53 1011.7
20260904160353 89 23 5.0 11.0 0.00 0.01 0.01 55 1011.8
20260904155824 89 321 5.0 13.0 0.00 0.01 0.01 54 1011.9
20260904155334 88 26 6.0 12.0 0.00 0.01 0.01 54 1011.9
20260904154830 88 360 6.0 16.0 0.00 0.01 0.01 55 1011.8
20260904154321 88 355 7.0 14.0 0.00 0.01 0.01 55 1011.7
20260904153833 88 327 7.0 12.0 0.00 0.01 0.01 56 1011.8
20260904153325 88 355 6.0 13.0 0.00 0.01 0.01 56 1012.0
20260904152817 88 27 7.0 12.0 0.00 0.01 0.01 57 1012.0
20260904152329 88 338 6.0 11.0 0.00 0.01 0.01 57 1012.0
20260904151821 87 360 4.0 11.0 0.00 0.01 0.01 58 1012.0
20260904151353 87 331 3.0 10.0 0.00 0.01 0.01 61 1012.0
20260904150823 87 310 5.0 10.0 0.00 0.01 0.01 62 1012.0
20260904150317 86 355 6.0 15.0 0.00 0.01 0.01 63 1012.0
20260904145828 86 9 8.0 15.0 0.00 0.01 0.01 63 1012.0
20260904145319 86 333 4.0 12.0 0.00 0.01 0.01 67 1012.0
20260904144831 85 327 3.0 12.0 0.00 0.01 0.01 68 1012.0
20260904144322 85 355 6.0 12.0 0.00 0.01 0.01 68 1012.0
20260904143817 84 337 6.0 11.0 0.00 0.01 0.01 68 1012.0
20260904143328 84 360 6.0 10.0 0.00 0.01 0.01 70 1012.0
20260904142822 84 309 5.0 14.0 0.00 0.01 0.01 71 1012.0
20260904142317 83 355 5.0 9.0 0.00 0.01 0.01 72 1012.0
20260904141828 83 329 6.0 9.0 0.00 0.01 0.01 73 1011.9
20260904141319 82 342 4.0 13.0 0.00 0.01 0.01 74 1011.9
20260904140830 82 303 8.0 13.0 0.00 0.01 0.01 74 1012.0
20260904140321 82 315 4.0 13.0 0.00 0.01 0.01 76 1011.9
20260904135815 82 327 6.0 13.0 0.00 0.01 0.01 76 1011.9
20260904135327 81 271 3.0 16.0 0.00 0.01 0.01 76 1011.8
20260904134822 81 347 5.0 16.0 0.00 0.01 0.01 76 1011.8
20260904134320 81 9 7.0 13.0 0.00 0.01 0.01 77 1011.9
20260904133832 81 22 4.0 14.0 0.00 0.01 0.01 78 1011.8
20260904131330 79 308 3.0 10.0 0.00 0.01 0.01 81 1011.6
20260904130841 79 10 4.0 14.0 0.00 0.01 0.01 82 1011.6
20260904130352 79 253 5.0 14.0 0.00 0.01 0.01 83 1011.5
20260904125823 79 320 7.0 14.0 0.00 0.01 0.01 83 1011.5
20260904125339 79 332 5.0 14.0 0.00 0.01 0.01 84 1011.6
20260904124830 78 271 4.0 12.0 0.00 0.01 0.01 85 1011.5
20260904124320 78 5 5.0 12.0 0.00 0.01 0.01 85 1011.5
20260904123851 78 292 3.0 12.0 0.00 0.01 0.01 87 1011.5
20260904123322 78 5 3.0 11.0 0.00 0.01 0.01 87 1011.6
20260904122837 77 333 3.0 11.0 0.00 0.01 0.01 88 1011.4
20260904122328 77 355 3.0 9.0 0.00 0.01 0.01 88 1011.4
20260904121820 77 312 1.0 10.0 0.00 0.01 0.01 89 1011.4
20260904121332 77 309 3.0 10.0 0.00 0.01 0.01 89 1011.4
20260904120823 76 167 2.0 7.0 0.00 0.01 0.01 89 1011.4
20260904120318 76 279 1.0 7.0 0.00 0.01 0.01 89 1011.5
20260904115830 76 288 3.0 8.0 0.00 0.01 0.01 89 1011.6
20260904115322 76 271 3.0 8.0 0.00 0.01 0.01 89 1011.6
20260904114834 76 340 3.0 7.0 0.00 0.01 0.01 89 1011.6
20260904114345 76 265 2.0 6.0 0.00 0.01 0.01 89 1011.4
20260904113816 76 281 2.0 6.0 0.00 0.01 0.01 89 1011.3
20260904113328 76 285 3.0 6.0 0.00 0.01 0.01 89 1011.3
20260904112839 76 300 3.0 8.0 0.00 0.01 0.01 89 1011.3
20260904112330 76 340 4.0 8.0 0.00 0.01 0.01 89 1011.2
20260904111829 76 274 4.0 7.0 0.00 0.01 0.01 89 1011.1
20260904111320 76 237 2.0 6.0 0.00 0.01 0.01 89 1011.0
20260904110851 76 263 3.0 6.0 0.00 0.01 0.01 89 1011.0
20260904110321 76 277 3.0 5.0 0.00 0.01 0.01 89 1011.1
20260904105832 76 273 2.0 5.0 0.00 0.01 0.01 89 1011.0
20260904105323 76 279 2.0 5.0 0.00 0.01 0.01 89 1011.0
20260904104815 76 259 3.0 5.0 0.00 0.01 0.01 89 1011.0
20260904104327 76 281 3.0 5.0 0.00 0.01 0.01 89 1010.9
20260904103819 76 254 2.0 7.0 0.00 0.12 0.01 89 1010.8
20260904103350 76 258 3.0 7.0 0.00 0.12 0.01 89 1010.8
20260904102824 76 288 3.0 6.0 0.00 0.12 0.01 89 1010.7
20260904102315 76 223 4.0 6.0 0.00 0.12 0.01 89 1010.7
20260904101827 76 257 4.0 6.0 0.00 0.12 0.01 89 1010.6
20260904101319 76 232 3.0 7.0 0.00 0.12 0.01 89 1010.7
20260904100831 76 259 4.0 6.0 0.00 0.12 0.01 89 1010.7
20260904100323 76 256 2.0 6.0 0.00 0.12 0.01 89 1010.6
20260904095817 76 256 3.0 8.0 0.00 0.12 0.01 89 1010.7
20260904095328 76 280 5.0 8.0 0.00 0.12 0.01 89 1010.6
20260904094823 76 275 3.0 8.0 0.00 0.12 0.01 89 1010.6
20260904094315 76 259 3.0 7.0 0.00 0.12 0.01 89 1010.6
20260904093825 76 302 3.0 7.0 0.00 0.13 0.01 89 1010.5
20260904093337 76 261 3.0 5.0 0.00 0.13 0.01 89 1010.7
20260904092830 76 279 2.0 5.0 0.00 0.13 0.01 88 1010.7
20260904092322 76 247 3.0 7.0 0.00 0.13 0.01 88 1010.8
20260904091834 76 262 3.0 7.0 0.00 0.13 0.01 88 1010.6
20260904091325 76 282 2.0 9.0 0.00 0.13 0.01 88 1010.7
20260904090824 76 234 4.0 9.0 0.00 0.13 0.01 88 1010.7
20260904090314 76 284 3.0 6.0 0.00 0.13 0.01 88 1010.7
20260904085825 76 279 3.0 8.0 0.00 0.13 0.01 88 1010.6
20260904085319 76 279 3.0 8.0 0.00 0.13 0.01 89 1010.6
20260904084831 76 276 3.0 6.0 0.00 0.13 0.01 88 1010.6
20260904084323 76 260 4.0 7.0 0.00 0.13 0.01 89 1010.6
20260904083324 76 286 3.0 7.0 0.00 0.16 0.01 89 1010.6
20260904082818 76 261 3.0 6.0 0.00 0.16 0.01 89 1010.5
20260904082329 76 284 3.0 6.0 0.00 0.16 0.01 88 1010.6
20260904081825 76 314 2.0 7.0 0.00 0.16 0.01 88 1010.7
20260904081336 76 273 4.0 7.0 0.00 0.16 0.01 88 1010.6
20260904080847 76 277 2.0 6.0 0.00 0.16 0.01 89 1010.5
20260904080317 76 271 2.0 6.0 0.00 0.16 0.01 88 1010.5
20260904075829 76 263 2.0 4.0 0.00 0.16 0.01 88 1010.5
20260904075320 76 263 1.0 4.0 0.01 0.16 0.01 88 1010.4
20260904074815 76 257 1.0 4.0 0.01 0.16 0.01 88 1010.6
20260904074326 77 264 3.0 5.0 0.01 0.16 0.01 88 1010.6
20260904073817 77 249 1.0 4.0 0.01 0.33 0.01 88 1010.6
20260904073348 77 229 1.0 4.0 0.01 0.33 0.01 88 1010.7
20260904072823 77 251 1.0 6.0 0.01 0.33 0.01 88 1010.6
20260904072333 77 243 4.0 6.0 0.01 0.33 0.01 87 1010.7
20260904071825 77 269 1.0 6.0 0.01 0.33 0.01 87 1010.7
20260904071316 77 280 3.0 6.0 0.01 0.33 0.01 87 1010.9
20260904070828 77 232 2.0 6.0 0.01 0.33 0.01 87 1010.8
20260904070319 77 311 1.0 7.0 0.01 0.33 0.01 86 1010.7
20260904065833 77 355 4.0 7.0 0.01 0.33 0.01 86 1010.9
20260904065325 77 251 1.0 2.0 0.00 0.32 0.00 86 1011.1
20260904064821 78 255 0.0 5.0 0.00 0.32 0.00 86 1010.9
20260904064332 78 255 1.0 6.0 0.00 0.32 0.00 86 1010.9
20260904063844 78 284 2.0 4.0 0.00 0.48 0.00 85 1010.7
20260904063318 78 276 1.0 4.0 0.00 0.48 0.00 85 1010.6
20260904062831 78 268 3.0 4.0 0.00 0.48 0.00 85 1010.7
20260904062325 78 244 2.0 7.0 0.00 0.48 0.00 85 1010.6
20260904061816 78 277 3.0 7.0 0.00 0.48 0.00 84 1010.7
20260904061331 78 254 3.0 9.0 0.00 0.48 0.00 84 1010.9
20260904060826 78 290 4.0 9.0 0.00 0.48 0.00 84 1011.0
20260904060317 78 259 2.0 7.0 0.00 0.48 0.00 84 1011.2
20260904055828 78 239 4.0 8.0 0.00 0.48 0.00 84 1011.2
20260904055320 78 281 5.0 8.0 0.00 0.48 0.00 84 1011.3
20260904054832 79 223 5.0 7.0 0.00 0.48 0.00 83 1011.7
20260904054324 78 311 2.0 7.0 0.00 0.48 0.00 83 1011.6
20260904053815 78 254 3.0 6.0 0.00 0.48 0.00 83 1011.8
20260904053327 79 263 3.0 8.0 0.00 0.48 0.00 83 1011.9
20260904052838 79 235 4.0 8.0 0.00 0.48 0.00 83 1011.9
20260904052349 79 232 3.0 7.0 0.00 0.48 0.00 83 1011.8
20260904051823 79 262 4.0 6.0 0.00 0.48 0.00 83 1011.9
20260904051314 79 257 2.0 4.0 0.00 0.48 0.00 83 1011.8
20260904050826 79 265 2.0 7.0 0.00 0.48 0.00 82 1011.7
20260904050318 79 294 4.0 7.0 0.00 0.48 0.00 82 1011.8
20260904045829 79 289 3.0 6.0 0.00 0.48 0.00 82 1011.8
20260904045324 79 252 3.0 5.0 0.00 0.48 0.00 82 1011.8
20260904044819 79 266 3.0 5.0 0.00 0.48 0.00 82 1012.0
20260904044330 79 236 3.0 5.0 0.00 0.48 0.00 82 1011.9
20260904043826 79 266 2.0 7.0 0.00 0.48 0.00 82 1012.0
20260904043317 79 283 3.0 7.0 0.00 0.48 0.00 82 1012.1
20260904042829 79 261 2.0 5.0 0.00 0.48 0.00 82 1012.1
20260904042320 79 279 3.0 5.0 0.00 0.48 0.00 82 1012.2
20260904041852 79 217 3.0 6.0 0.00 0.48 0.00 82 1012.2
20260904041320 79 270 3.0 6.0 0.00 0.48 0.00 82 1012.4
20260904040852 80 279 3.0 5.0 0.00 0.48 0.00 81 1012.4
20260904040321 80 299 3.0 6.0 0.00 0.48 0.00 81 1012.3
20260904035831 80 281 2.0 6.0 0.00 0.48 0.00 81 1012.3
20260904035323 80 228 3.0 7.0 0.00 0.48 0.00 81 1012.2
20260904034819 80 261 4.0 10.0 0.00 0.48 0.00 81 1012.4
20260904034329 80 263 5.0 10.0 0.00 0.48 0.00 81 1012.6
20260904033841 80 263 4.0 8.0 0.00 0.49 0.48 81 1012.7
20260904033314 80 242 4.0 8.0 0.00 0.49 0.48 81 1012.7
20260904032825 80 249 4.0 11.0 0.00 0.49 0.48 81 1012.7
20260904032320 80 240 4.0 11.0 0.00 0.49 0.48 81 1012.8
20260904031851 80 269 5.0 9.0 0.00 0.49 0.48 81 1012.7
20260904031321 80 247 3.0 8.0 0.00 0.49 0.48 81 1012.5
20260904030834 80 264 4.0 8.0 0.00 0.49 0.48 81 1012.5
20260904030329 80 258 4.0 7.0 0.00 0.49 0.48 81 1012.5
20260904025824 80 267 3.0 9.0 0.00 0.49 0.48 81 1012.5
20260904025315 80 246 4.0 9.0 0.00 0.49 0.48 81 1012.6
20260904024826 80 279 5.0 9.0 0.00 0.49 0.48 81 1012.6
20260904024318 80 242 4.0 10.0 0.00 0.49 0.48 81 1012.6
20260904023832 80 255 5.0 10.0 0.00 0.50 0.48 81 1012.7
20260904023324 80 252 4.0 9.0 0.00 0.50 0.48 81 1012.9
20260904022815 81 244 5.0 9.0 0.00 0.50 0.48 81 1013.1
20260904022330 81 240 6.0 8.0 0.00 0.50 0.48 81 1013.2
20260904021825 81 250 4.0 7.0 0.00 0.50 0.48 81 1013.0
20260904021319 81 274 3.0 8.0 0.00 0.50 0.48 81 1013.0
20260904020830 81 231 3.0 8.0 0.00 0.50 0.48 81 1013.2
20260904020322 81 261 4.0 10.0 0.00 0.50 0.48 81 1013.3
20260904015833 81 232 5.0 10.0 0.00 0.50 0.48 81 1013.3
20260904015345 81 263 5.0 9.0 0.00 0.50 0.48 81 1013.3
20260904014815 81 243 4.0 9.0 0.00 0.50 0.48 81 1013.3
20260904014329 81 271 4.0 9.0 0.00 0.50 0.48 81 1013.3
20260904013845 81 258 3.0 8.0 0.00 0.51 0.48 81 1013.2
20260904013319 81 217 5.0 8.0 0.00 0.51 0.48 80 1013.3
20260904012830 81 257 3.0 9.0 0.00 0.51 0.48 80 1013.5
20260904012345 81 270 5.0 9.0 0.00 0.51 0.48 80 1013.4
20260904011815 81 234 3.0 8.0 0.00 0.51 0.48 80 1013.3
20260904011327 81 246 4.0 7.0 0.00 0.51 0.48 80 1013.2
20260904010822 81 236 1.0 6.0 0.00 0.51 0.48 79 1013.2
20260904005825 82 268 1.0 4.0 0.00 0.51 0.48 79 1013.2
20260904005341 82 216 1.0 3.0 0.00 0.51 0.48 78 1013.0
20260904004831 82 214 1.0 4.0 0.00 0.51 0.48 78 1013.1
20260904004323 82 179 1.0 5.0 0.00 0.51 0.48 78 1013.0
20260904003834 82 220 1.0 5.0 0.00 0.51 0.48 77 1013.1
20260904003325 82 257 2.0 6.0 0.00 0.51 0.48 77 1013.3
20260904002816 83 239 2.0 6.0 0.00 0.51 0.48 76 1013.3
20260904002347 83 232 2.0 6.0 0.00 0.51 0.48 76 1013.1